This is the latest recevied weather packets stored in our database for station/object KC1IUC-13. If no packets are shown the sender has not sent any weather packets the latest 10 day(s).
| Time | Temp. | Humidity | Pressure | Rain* | Wind** | Luminosity | Snow |
|---|---|---|---|---|---|---|---|
| 1777898704 | 13.33° C | 73% | 1009 hPa | 0 mm | - | 75 W/m² | - |
| 1777898164 | 10.56° C | 73% | 1009.4 hPa | 0 mm | - | 108 W/m² | - |
| 1777897624 | 10° C | 73% | 1009 hPa | 0 mm | - | 63 W/m² | - |
| 1777897084 | 8.89° C | 73% | 1009 hPa | 0 mm | - | 66 W/m² | - |
| 1777896544 | 7.78° C | 72% | 1009.4 hPa | 0 mm | - | 54 W/m² | - |
| 1777896004 | 7.22° C | 72% | 1009.4 hPa | 0 mm | - | 80 W/m² | - |
| 1777895644 | 6.67° C | 72% | 1009.4 hPa | 0 mm | - | 84 W/m² | - |
| 1777895104 | 6.11° C | 71% | 1009.4 hPa | 0 mm | - | 58 W/m² | - |
| 1777894564 | 6.67° C | 71% | 1009.4 hPa | 0 mm | - | 53 W/m² | - |
| 1777894024 | 6.67° C | 71% | 1009 hPa | 0 mm | - | 31 W/m² | - |
| 1777893484 | 6.11° C | 73% | 1009.4 hPa | 0 mm | - | 42 W/m² | - |
| 1777892944 | 5° C | 72% | 1009 hPa | 0 mm | - | 31 W/m² | - |
| 1777892404 | 2.78° C | 72% | 1009 hPa | 0 mm | - | 25 W/m² | - |
| 1777892044 | 2.22° C | 72% | 1009.4 hPa | 0 mm | - | 22 W/m² | - |
| 1777891504 | 1.67° C | 72% | 1009.4 hPa | 0 mm | - | 19 W/m² | - |
| 1777890964 | 1.11° C | 72% | 1009.4 hPa | 0 mm | - | 16 W/m² | - |
| 1777890424 | 1.11° C | 72% | 1009 hPa | 0 mm | - | 13 W/m² | - |
| 1777889884 | 0.56° C | 71% | 1009 hPa | 0 mm | - | 9 W/m² | - |
| 1777889344 | 0.56° C | 71% | 1009 hPa | 0 mm | - | 6 W/m² | - |
| 1777888804 | 0° C | 71% | 1008.7 hPa | 0 mm | - | 4 W/m² | - |
| 1777888444 | 0.56° C | 70% | 1008.7 hPa | 0 mm | - | 2 W/m² | - |
| 1777887904 | 0.56° C | 70% | 1008.7 hPa | 0 mm | - | 1 W/m² | - |
| 1777887364 | 0° C | 70% | 1008.7 hPa | 0 mm | - | 0 W/m² | - |
| 1777886824 | 0.56° C | 69% | 1009 hPa | 0 mm | - | 0 W/m² | - |
| 1777886284 | 0.56° C | 69% | 1009 hPa | 0 mm | - | 0 W/m² | - |
* Rain latest hour (hover to see other rain measurements)
** Current wind speed in m/s (hover to see current wind gust speed)